Location: Colonial Hills
(40.5656°N, 77.6119°W)
Time: 15:25:07
(UTC+00:00)

X-37B - Pass Details

Date: 27 November 2020
Orbit: 384 x 390 km, 45.0° (Epoch: 02 January)

Event Time Altitude Azimuth Distance (km) Brightness Sun altitude
Rises 22:37:42 0° 220° (SW) 2,251 5.6 -10.0°
Reaches altitude 10° 22:39:54 10° 208° (SSW) 1,402 4.1 -10.3°
Maximum altitude 22:42:41 29° 147° (SSE) 746 1.9 -10.8°
Enters shadow 22:44:34 16° 95° (E) 1,099 2.3 -11.2°
